This demonstration page uses our WeatherBlox Daily Observations layout. Learn more.

Left ArrowRight Arrow

44.31136, -96.79839

Hourly Observations for June 6, 2019

Temp ( °F °C ) Dew Point ( °F °C ) Humidity (%) Winds ( mph kmh ) Pressure ( in mb ) Visibility ( mi km ) Precip ( " mm )
12:56 am 00:56 Clear 62 16.7 53 11.7 73 73 Calm 29.92 1013 10 16 0.00 0.00
1:56 am 01:56 Clear 61 16.1 51 10.6 70 70 Calm 29.91 1013 10 16 0.00 0.00
2:56 am 02:56 Clear 60 15.6 52 11.1 75 75 Calm 29.91 1013 10 16 0.00 0.00
3:56 am 03:56 Clear 57 13.9 52 11.1 83 83 Calm 29.91 1013 10 16 0.00 0.00
4:56 am 04:56 Clear 56 13.3 52 11.1 87 87 SE 3 6 29.92 1013 10 16 0.00 0.00
5:56 am 05:56 Sunny with Mist and Fog 56 13.3 52 11.1 87 87 Calm 29.93 1014 3 5 0.00 0.00
6:56 am 06:56 Sunny 58 14.4 55 12.8 90 90 Calm 29.94 1014 9 14 0.00 0.00
7:56 am 07:56 Sunny 65 18.3 57 13.9 76 76 undefined N/A 29.93 1014 9 14 0.00 0.00
8:56 am 08:56 Sunny 71 21.7 60 15.6 68 68 S 6 9 29.94 1014 10 16 0.00 0.00
9:56 am 09:56 Sunny 75 23.9 62 16.7 64 64 S 7 11 29.93 1014 10 16 0.00 0.00
10:56 am 10:56 Sunny 79 26.1 58 14.4 49 49 SSW 6 9 29.92 1013 10 16 0.00 0.00
11:56 am 11:56 Sunny 81 27.2 55 12.8 41 41 SSE 3 6 29.92 1013 10 16 0.00 0.00
12:56 pm 12:56 Sunny 82 27.8 55 12.8 40 40 VRB 3 6 29.91 1013 10 16 0.00 0.00
1:56 pm 13:56 Sunny 84 28.9 55 12.8 37 37 VRB 5 7 29.90 1013 10 16 0.00 0.00
2:56 pm 14:56 Sunny 84 28.9 54 12.2 36 36 Calm 29.89 1012 10 16 0.00 0.00
3:56 pm 15:56 Sunny 86 30 55 12.8 35 35 SSW 5 7 29.89 1012 10 16 0.00 0.00
4:56 pm 16:56 Sunny 87 30.6 55 12.8 34 34 Calm 29.88 1012 10 16 0.00 0.00
5:56 pm 17:56 Sunny 87 30.6 56 13.3 35 35 VRB 7 11 29.87 1012 10 16 0.00 0.00
6:56 pm 18:56 Sunny 86 30 55 12.8 35 35 S 5 7 29.87 1011 10 16 0.00 0.00
7:56 pm 19:56 Sunny 86 30 58 14.4 39 39 S 3 6 29.86 1011 10 16 0.00 0.00
8:56 pm 20:56 Sunny 82 27.8 54 12.2 38 38 S 3 6 29.86 1011 10 16 0.00 0.00
9:56 pm 21:56 Clear 79 26.1 55 12.8 44 44 SSW 5 7 29.87 1012 10 16 0.00 0.00
10:56 pm 22:56 Clear 72 22.2 57 13.9 59 59 S 3 6 29.87 1012 10 16 0.00 0.00
11:56 pm 23:56 Clear 69 20.6 58 14.4 68 68 Calm 29.87 1012 10 16 0.00 0.00

Powered by AerisWeather